Regional Weather Roundup
Issued by NWS

Home | Current Version | Previous Version | Text Only | Print | Product List | Glossary On
Versions: 1 2 3 4 5 6 7 8 9 10 11 12 13 14 15 16 17 18 19 20 21 22 23 24 25 26 27 28 29 30 31 32 33 34 35 36 37 38 39 40 41 42 43 44 45 46 47 48 49 50
000
ASUS43 KTOP 200808
RWRKS

WEATHER ROUNDUP FOR KANSAS
NATIONAL WEATHER SERVICE GOODLAND KS
200 AM CST FRI JAN 20 2017

NOTE:  "FAIR" INDICATES FEW OR NO CLOUDS BELOW 12,000 FEET WITH NO
SIGNIFICANT WEATHER AND/OR OBSTRUCTIONS TO VISIBILITY.

KSZ001>006-013>018-027>032-041>047-200900-
NORTHWEST KANSAS

CITY           SKY/WX    TMP DP  RH WIND       PRES   REMARKS
GOODLAND       FOG       30  30 100 SW5       29.48F VSB 1/2
HAYS           FOG       42  41  96 CALM      29.52F VSB 1/4
HILL CITY      FOG       40  40 100 CALM      29.52F VSB 1/4
RUSSELL        FOG       42  42 100 E7        29.49F VSB 1/4
$$

KSZ061>065-074>080-084>089-200900-
SOUTHWEST KANSAS

CITY           SKY/WX    TMP DP  RH WIND       PRES   REMARKS
DODGE CITY     PTCLDY    31  30  96 N3        29.49F FOG
ELKHART          N/A     31  26  82 N6          N/A
GARDEN CITY    CLOUDY    36  33  89 NE5       29.49F
GREAT BEND     LGT RAIN  43  42  97 SE6       29.52R VSB 1/2
LIBERAL        CLOUDY    36  30  80 CALM      29.51S
PRATT          FOG       34  34  99 S3        29.54R VSB 1/4
$$

KSZ066>073-081>083-090>101-200900-
SOUTHEAST KANSAS

CITY           SKY/WX    TMP DP  RH WIND       PRES   REMARKS
CHANUTE        CLOUDY    49  45  86 SE7       29.57F
COFFEYVILLE    CLOUDY    48  47  96 E5        29.57F
HUTCHINSON     FOG       43  42  97 E6        29.52F VSB 1/2
MEDICINE LODGE   N/A     31  31 100 N5        29.52R
NEWTON         FOG       44  43  96 E6        29.53F VSB 1/4
PARSONS        CLOUDY    49  47  93 SE3       29.58F
WICHITA INTL   CLOUDY    44  44 100 E7        29.53R FOG
WICHITA JABRA  FOG       43  43 100 CALM      29.53F VSB 1/4
WICHITA MCCONL CLOUDY    43  43 100 SE5       29.53R FOG
WINFIELD       CLOUDY    47  46  97 SE6       29.55R FOG
$$

KSZ007>012-019>026-033>040-048>060-102>105-200900-
NORTHEAST KANSAS

CITY           SKY/WX    TMP DP  RH WIND       PRES   REMARKS
CONCORDIA      FOG       40  40 100 CALM      29.55F VSB 1/4
EMPORIA        FOG       42  42 100 NE3       29.56F VSB 3/4
LAWRENCE       FOG       44  44 100 E5        29.60S VSB 1/4
MANHATTAN      FOG       44  43  96 NE5       29.57F VSB 1/4
MARYSVILLE     FOG       41  41 100 E3        29.58S VSB 1/4
OLATHE IND     CLOUDY    45  45 100 E6        29.59F FOG
OLATHE EXE     FOG       45  45 100 SE3       29.59S VSB 1
SALINA           N/A    N/A N/A N/A MISG        N/A
TOPEKA BILLARD FOG       45  43  93 E3        29.59S VSB 1/4
TOPEKA FORBES  FOG       46  45  96 SE5       29.58F VSB 1/4
$$



USA.gov is the U.S. government's official web portal to all federal, state and local government web resources and services.